Location: Central Coast
(33.3208°S, 151.2336°E)
Time: 08:18:59
(UTC+11:00)

CUTE-I - Visible Passes

Search period start: 22 February 2018 00:00
Search period end: 04 March 2018 00:00
Orbit: 811 x 825 km, 98.7° (Epoch: 20 February)

Date Brightness Start Highest point End Pass type
(mag) Time Alt. Az. Time Alt. Az. Time Alt. Az.
22 Feb ? 05:05:14 10° E 05:07:11 12° ESE 05:09:10 10° SE visible
22 Feb ? 20:44:32 10° SSW 20:47:16 14° WSW 20:49:57 10° W visible
23 Feb ? 20:22:08 10° SSW 20:26:12 23° WSW 20:30:16 10° WNW visible
24 Feb ? 05:59:00 10° NE 06:04:02 42° ESE 06:09:06 10° S visible
24 Feb ? 20:00:15 10° S 20:05:06 35° WSW 20:09:54 10° NW visible
25 Feb ? 05:38:29 10° ENE 05:42:54 27° ESE 05:47:21 10° SSE visible
26 Feb ? 05:18:29 10° ENE 05:21:50 17° ESE 05:25:11 10° SSE visible
27 Feb ? 05:00:18 10° ESE 05:00:50 10° ESE 05:01:22 10° SE visible
27 Feb ? 20:37:38 10° SSW 20:40:52 16° WSW 20:44:06 10° WNW visible
28 Feb ? 06:13:32 10° NNE 06:18:48 59° ESE 06:24:07 10° S visible
28 Feb ? 20:15:27 10° SSW 20:19:49 26° WSW 20:24:08 10° WNW visible
01 Mar ? 05:52:44 10° NE 05:57:37 36° ESE 06:02:32 10° S visible
01 Mar ? 19:53:40 10° S 19:58:40 41° WSW 20:03:37 10° NW visible
02 Mar ? 05:32:21 10° ENE 05:36:29 23° ESE 05:40:40 10° SSE visible
03 Mar ? 05:12:37 10° E 05:15:26 15° ESE 05:18:17 10° SSE visible
03 Mar ? 20:53:45 10° SW 20:55:30 12° WSW 20:57:14 10° W visible
